Regional Weather Roundup
Issued by NWS

Home | Current Version | Previous Version | Graphics & Text | Print | Product List | Glossary On
Versions: 1 2 3 4 5 6 7 8 9 10 11 12 13 14 15 16 17 18 19 20 21 22 23 24 25 26 27 28 29 30 31 32 33 34 35 36 37 38 39 40 41 42 43 44 45 46 47 48 49 50
564
ASUS43 KIND 121459
RWRIN

WEATHER ROUNDUP FOR INDIANA
NATIONAL WEATHER SERVICE INDIANAPOLIS IN
1000 AM EST FRI FEB 12 2016

NOTE: "FAIR" INDICATES FEW OR NO CLOUDS BELOW 12,000 FEET WITH NO
SIGNIFICANT WEATHER AND/OR OBSTRUCTIONS TO VISIBILITY.

* - STATION DOES NOT REPORT WEATHER SUCH AS PRECIPITATION OR FOG.

+ - STATION NOT QUALITY CONTROLLED BY THE NATIONAL WEATHER SERVICE.
    USE DATA WITH CAUTION...ESPECIALLY DEWPOINT AND RELATIVE
    HUMIDITY OBSERVATIONS.

INZ001>003-010>013-019-020-121600-
NORTHWEST INDIANA

CITY           SKY/WX    TMP DP  RH WIND       PRES   REMARKS
GARY /AIRPORT/ CLOUDY    23   9  54 W14G25    30.15F WCI  11
MONTICELLO +   PTSUNNY   22  14  71 W14       30.16S WCI   9
RENSSELAER +   CLOUDY    25  16  68 W13       30.16S WCI  13

$$

LMZ046-743>745-121600-
SOUTHERN LAKE MICHIGAN

STATION/POSITION TIME  TEMP    WIND        PRES    WAVE
                       AIR SEA DIR/SP/G            HT
                 (UTC) (F)     (DEG/KT/KT) (MB)    (FT)
BURNS HARBOR     1400   22     260/ 16/ 20 1021.0F
MICHIGAN CITY    1400   22     230/ 19/ 21   N/A

$$

INZ004-005-014>016-021>024-121600-
NORTH CENTRAL INDIANA

CITY           SKY/WX    TMP DP  RH WIND       PRES   REMARKS
ELKHART        CLOUDY    19  10  68 W14       30.10F WCI   6
GOSHEN         CLOUDY    20  11  68 W15       30.10S WCI   6
SOUTH BEND     CLOUDY    19  12  74 SW14      30.10F WCI   6

$$

INZ006>009-017-018-025>027-121600-
NORTHEAST INDIANA

CITY           SKY/WX    TMP DP  RH WIND       PRES   REMARKS
ANGOLA *+      CLOUDY    19  10  68 W10       30.06S WCI   8
FORT WAYNE     CLOUDY    20  10  65 SW14      30.12F WCI   7

$$

INZ028-029-035-036-043>045-051>053-121600-
WEST CENTRAL INDIANA

CITY           SKY/WX    TMP DP  RH WIND       PRES   REMARKS
GREENCASTLE +  CLOUDY    23   7  50 W6        30.18F WCI  16
LAFAYETTE      CLOUDY    22  15  75 W12       30.18S WCI  10
TERRE HAUTE    CLOUDY    23  15  71 W8        30.21S WCI  14

$$

INZ030>032-037>040-046>048-054>057-064-065-121600-
CENTRAL INDIANA

CITY           SKY/WX    TMP DP  RH WIND       PRES   REMARKS
ANDERSON       CLOUDY    21  12  68 SW12      30.16  WCI   9
COLUMBUS       CLOUDY    23  14  68 SW10      30.19S WCI  12
FRANKFORT +    SUNNY     23   8  52 W13       30.17F WCI  11
GREENWOOD *+   CLOUDY    23  14  68 W9        30.17F WCI  13
INDIANAPOLIS   CLOUDY    24  11  57 W12       30.16F WCI  13
-EAGLE CREEK   CLOUDY    23  10  57 W7        30.16F WCI  15
KOKOMO *+      CLOUDY    21  10  63 W13       30.14F WCI   9
MT COMFORT *+  CLOUDY    23   9  54 W6        30.16F WCI  16
SHELBYVILLE    CLOUDY    23  13  65 SW7       30.15F WCI  15

$$

INZ033-034-041-042-049-050-058-059-121600-
EAST CENTRAL INDIANA

CITY           SKY/WX    TMP DP  RH WIND       PRES   REMARKS
MUNCIE         CLOUDY    22   9  57 W10       30.13F WCI  11

$$

INZ060-061-067>069-081>083-085>088-121600-
SOUTHWEST INDIANA

CITY           SKY/WX    TMP DP  RH WIND       PRES   REMARKS
EVANSVILLE     CLOUDY    27  21  78 NW5       30.25R WCI  22
HUNTINGBURG *+ CLOUDY    27  19  74 NW6       30.23S WCI  20

$$

INZ062-063-066-070>080-084-089>092-121600-
SOUTH CENTRAL AND SOUTHEAST INDIANA

CITY           SKY/WX    TMP DP  RH WIND       PRES   REMARKS
BLOOMINGTON    CLOUDY    24  15  68 W6        30.18F WCI  17
MADISON *+     CLOUDY    27  14  59 SW5       30.20F WCI  21
SEYMOUR +      CLOUDY    27  14  59 SW7       30.19F WCI  19

$$





USA.gov is the U.S. government's official web portal to all federal, state and local government web resources and services.